Location: Boca de Tacagua
(10.5333°N, 66.9833°W)
Time: 01:44:48
(UTC+00:00)

Cosmos 1666 Rocket - Pass Details

Date: 03 July 2022
Orbit: 602 x 633 km, 82.5° (Epoch: 17 August)

Event Time Altitude Azimuth Distance (km) Brightness Sun altitude
Exits shadow 08:46:52 29° 291° (WNW) 1,138 4.6 -19.3°
Drops below altitude 10° 08:50:09 10° 337° (NNW) 1,992 6.2 -18.6°
Sets 08:52:36 0° 348° (NNW) 2,903 7.2 -18.1°
